Time,TemperatureF,DewpointF,PressureIn,WindDirection,WindDirectionDegrees,WindSpeedMPH,WindSpeedGustMPH,Humidity,HourlyPrecipIn,Conditions,Clouds,dailyrainin,SoftwareType,DateUTC
2015-08-04 00:02:00,69.0,42.4,29.92,NE,42,1.0,3.0,38,0.00,,FEW180,0.00,VWS V15.00,2015-08-04 07:02:00,
2015-08-04 00:07:00,68.8,42.2,29.93,NNE,25,2.0,4.0,38,0.00,,FEW180,0.00,VWS V15.00,2015-08-04 07:07:00,
2015-08-04 00:12:00,68.6,42.7,29.93,ENE,63,2.0,4.0,39,0.00,,FEW180,0.00,VWS V15.00,2015-08-04 07:12:00,
2015-08-04 00:17:00,68.5,42.6,29.93,ENE,70,2.0,4.0,39,0.00,,FEW180,0.00,VWS V15.00,2015-08-04 07:17:00,
2015-08-04 00:22:00,68.4,42.5,29.93,NE,40,0.0,4.0,39,0.00,,FEW180,0.00,VWS V15.00,2015-08-04 07:22:00,
2015-08-04 00:27:00,68.3,42.4,29.93,NE,51,1.0,4.0,39,0.00,,FEW180,0.00,VWS V15.00,2015-08-04 07:27:00,
2015-08-04 00:32:00,68.1,42.2,29.93,NNE,15,2.0,4.0,39,0.00,,FEW180,0.00,VWS V15.00,2015-08-04 07:32:00,
2015-08-04 00:37:00,67.7,42.5,29.94,ENE,59,1.0,5.0,40,0.00,,FEW180,0.00,VWS V15.00,2015-08-04 07:37:00,
2015-08-04 00:41:00,67.4,42.3,29.93,NNE,20,0.0,5.0,40,0.00,,FEW180,0.00,VWS V15.00,2015-08-04 07:41:00,
2015-08-04 00:51:00,67.1,42.6,29.93,NNE,32,1.0,5.0,41,0.00,,FEW180,0.00,VWS V15.00,2015-08-04 07:51:00,
2015-08-04 00:56:00,67.1,42.6,29.93,NNE,14,0.0,5.0,41,0.00,,FEW180,0.00,VWS V15.00,2015-08-04 07:56:00,
2015-08-04 01:01:00,67.3,42.2,29.93,NNE,15,2.0,5.0,40,0.00,,FEW180,0.00,VWS V15.00,2015-08-04 08:01:00,
2015-08-04 01:06:00,67.4,42.9,29.93,North,354,4.0,5.0,41,0.00,,FEW180,0.00,VWS V15.00,2015-08-04 08:06:00,
2015-08-04 01:11:00,67.3,42.8,29.93,NW,323,4.0,5.0,41,0.00,,FEW180,0.00,VWS V15.00,2015-08-04 08:11:00,
2015-08-04 01:16:00,67.1,43.3,29.93,NNE,15,2.0,5.0,42,0.00,,FEW180,0.00,VWS V15.00,2015-08-04 08:16:00,
2015-08-04 01:21:00,66.9,43.1,29.93,NNE,15,3.0,5.0,42,0.00,,FEW180,0.00,VWS V15.00,2015-08-04 08:21:00,
2015-08-04 01:26:00,67.0,43.2,29.93,NNE,30,2.0,5.0,42,0.00,,FEW180,0.00,VWS V15.00,2015-08-04 08:26:00,
2015-08-04 01:31:00,66.9,43.1,29.93,NNE,26,1.0,5.0,42,0.00,,FEW180,0.00,VWS V15.00,2015-08-04 08:31:00,
2015-08-04 01:36:00,66.9,43.1,29.93,NNE,14,2.0,5.0,42,0.00,,FEW180,0.00,VWS V15.00,2015-08-04 08:36:00,
2015-08-04 01:41:00,66.9,43.1,29.94,NNE,21,1.0,5.0,42,0.00,,FEW180,0.00,VWS V15.00,2015-08-04 08:41:00,
2015-08-04 01:46:00,67.0,43.2,29.94,NNE,30,3.0,5.0,42,0.00,,FEW180,0.00,VWS V15.00,2015-08-04 08:46:00,
2015-08-04 01:51:00,66.9,43.1,29.94,North,1,2.0,5.0,42,0.00,,FEW180,0.00,VWS V15.00,2015-08-04 08:51:00,
2015-08-04 01:56:00,66.8,43.0,29.94,North,359,3.0,4.0,42,0.00,,FEW180,0.00,VWS V15.00,2015-08-04 08:56:00,
2015-08-04 02:01:00,66.9,43.1,29.94,NNW,330,2.0,4.0,42,0.00,,FEW180,0.00,VWS V15.00,2015-08-04 09:01:00,
2015-08-04 02:06:00,66.8,43.0,29.94,NNW,335,4.0,6.0,42,0.00,,FEW180,0.00,VWS V15.00,2015-08-04 09:06:00,
2015-08-04 02:11:00,66.9,43.1,29.94,NNW,345,4.0,6.0,42,0.00,,FEW180,0.00,VWS V15.00,2015-08-04 09:11:00,
2015-08-04 02:16:00,66.8,43.0,29.94,NNW,327,1.0,8.0,42,0.00,,FEW180,0.00,VWS V15.00,2015-08-04 09:16:00,
2015-08-04 02:21:00,66.5,42.7,29.94,East,95,1.0,8.0,42,0.00,,FEW180,0.00,VWS V15.00,2015-08-04 09:21:00,
2015-08-04 02:26:00,66.6,42.8,29.94,East,94,0.0,8.0,42,0.00,,FEW180,0.00,VWS V15.00,2015-08-04 09:26:00,
2015-08-04 02:31:00,66.6,42.8,29.94,NW,324,0.0,8.0,42,0.00,,FEW180,0.00,VWS V15.00,2015-08-04 09:31:00,
2015-08-04 02:36:00,66.6,42.8,29.94,NNW,332,1.0,8.0,42,0.00,,FEW180,0.00,VWS V15.00,2015-08-04 09:36:00,
2015-08-04 02:41:00,66.4,43.2,29.94,NNW,331,0.0,8.0,43,0.00,,FEW180,0.00,VWS V15.00,2015-08-04 09:41:00,
2015-08-04 02:46:00,65.9,42.8,29.94,NNW,346,2.0,8.0,43,0.00,,FEW180,0.00,VWS V15.00,2015-08-04 09:46:00,
2015-08-04 02:51:00,65.7,43.2,29.94,NNE,27,0.0,8.0,44,0.00,,FEW180,0.00,VWS V15.00,2015-08-04 09:51:00,
2015-08-04 02:56:00,65.7,42.6,29.94,NNE,32,0.0,8.0,43,0.00,,FEW180,0.00,VWS V15.00,2015-08-04 09:56:00,
2015-08-04 03:01:00,65.5,42.4,29.94,NNE,32,0.0,8.0,43,0.00,,FEW180,0.00,VWS V15.00,2015-08-04 10:01:00,
2015-08-04 03:06:00,65.0,42.6,29.94,NNE,32,0.0,8.0,44,0.00,,FEW180,0.00,VWS V15.00,2015-08-04 10:06:00,
2015-08-04 03:11:00,64.4,42.6,29.94,NNE,32,0.0,8.0,45,0.00,,FEW180,0.00,VWS V15.00,2015-08-04 10:11:00,
2015-08-04 03:16:00,63.9,42.7,29.94,SSE,161,0.0,8.0,46,0.00,,FEW180,0.00,VWS V15.00,2015-08-04 10:16:00,
2015-08-04 03:21:00,63.5,42.4,29.94,SSE,161,0.0,8.0,46,0.00,,FEW180,0.00,VWS V15.00,2015-08-04 10:21:00,
2015-08-04 03:26:00,63.5,42.4,29.94,SSE,161,0.0,8.0,46,0.00,,FEW180,0.00,VWS V15.00,2015-08-04 10:26:00,
2015-08-04 03:31:00,63.5,42.4,29.94,SSE,161,0.0,8.0,46,0.00,,FEW180,0.00,VWS V15.00,2015-08-04 10:31:00,
2015-08-04 03:36:00,63.7,42.5,29.94,SSE,161,0.0,8.0,46,0.00,,FEW180,0.00,VWS V15.00,2015-08-04 10:36:00,
2015-08-04 03:41:00,63.6,41.9,29.94,SSE,161,0.0,8.0,45,0.00,,FEW180,0.00,VWS V15.00,2015-08-04 10:41:00,
2015-08-04 03:46:00,63.1,42.0,29.94,SSE,161,0.0,8.0,46,0.00,,FEW180,0.00,VWS V15.00,2015-08-04 10:46:00,
2015-08-04 03:51:00,62.7,42.2,29.94,SSE,161,0.0,8.0,47,0.00,,FEW180,0.00,VWS V15.00,2015-08-04 10:51:00,
2015-08-04 03:56:00,62.2,41.7,29.94,SSE,161,0.0,0.0,47,0.00,,FEW180,0.00,VWS V15.00,2015-08-04 10:56:00,
2015-08-04 04:01:00,62.2,42.3,29.93,SSE,161,0.0,0.0,48,0.00,,FEW180,0.00,VWS V15.00,2015-08-04 11:01:00,
2015-08-04 04:06:00,62.6,42.1,29.93,SSE,161,0.0,0.0,47,0.00,,FEW180,0.00,VWS V15.00,2015-08-04 11:06:00,
2015-08-04 04:11:00,62.4,42.5,29.94,SSE,161,0.0,0.0,48,0.00,,FEW180,0.00,VWS V15.00,2015-08-04 11:11:00,
2015-08-04 04:16:00,62.1,41.7,29.94,SSE,161,0.0,0.0,47,0.00,,FEW180,0.00,VWS V15.00,2015-08-04 11:16:00,
2015-08-04 04:21:00,61.9,42.5,29.93,South,174,0.0,0.0,49,0.00,,FEW180,0.00,VWS V15.00,2015-08-04 11:21:00,
2015-08-04 04:26:00,61.6,42.3,29.93,South,174,0.0,0.0,49,0.00,,FEW180,0.00,VWS V15.00,2015-08-04 11:26:00,
2015-08-04 04:31:00,61.5,42.2,29.94,SSW,198,1.0,2.0,49,0.00,,FEW180,0.00,VWS V15.00,2015-08-04 11:31:00,
2015-08-04 04:36:00,61.3,42.0,29.93,SSW,200,2.0,2.0,49,0.00,,FEW180,0.00,VWS V15.00,2015-08-04 11:36:00,
2015-08-04 04:41:00,60.9,42.2,29.93,SSW,204,2.0,4.0,50,0.00,,FEW180,0.00,VWS V15.00,2015-08-04 11:41:00,
2015-08-04 04:46:00,60.8,42.1,29.94,SSW,207,2.0,4.0,50,0.00,,FEW180,0.00,VWS V15.00,2015-08-04 11:46:00,
2015-08-04 04:51:00,60.9,42.7,29.94,SSW,213,1.0,4.0,51,0.00,,FEW180,0.00,VWS V15.00,2015-08-04 11:51:00,
2015-08-04 04:56:00,60.9,42.2,29.94,SW,222,0.0,4.0,50,0.00,,FEW180,0.00,VWS V15.00,2015-08-04 11:56:00,
2015-08-04 05:01:00,60.9,41.6,29.94,SSW,211,0.0,4.0,49,0.00,,FEW180,0.00,VWS V15.00,2015-08-04 12:01:00,
2015-08-04 05:06:00,60.8,41.0,29.93,SSW,207,0.0,4.0,48,0.00,,FEW180,0.00,VWS V15.00,2015-08-04 12:06:00,
2015-08-04 05:11:00,60.7,40.9,29.93,SW,214,0.0,4.0,48,0.00,,FEW180,0.00,VWS V15.00,2015-08-04 12:11:00,
2015-08-04 05:16:00,60.5,40.7,29.94,SSW,207,0.0,4.0,48,0.00,,FEW180,0.00,VWS V15.00,2015-08-04 12:16:00,
2015-08-04 05:21:00,60.2,41.0,29.94,SSW,198,2.0,4.0,49,0.00,,FEW180,0.00,VWS V15.00,2015-08-04 12:21:00,
2015-08-04 05:26:00,60.0,41.3,29.94,SSW,206,1.0,4.0,50,0.00,,FEW180,0.00,VWS V15.00,2015-08-04 12:26:00,
2015-08-04 05:31:00,59.8,41.1,29.94,SW,221,2.0,4.0,50,0.00,,FEW180,0.00,VWS V15.00,2015-08-04 12:31:00,
2015-08-04 05:36:00,59.8,40.6,29.94,SSW,206,1.0,4.0,49,0.00,,FEW180,0.00,VWS V15.00,2015-08-04 12:36:00,
2015-08-04 05:40:00,59.8,40.6,29.94,SSW,210,1.0,4.0,49,0.00,,FEW180,0.00,VWS V15.00,2015-08-04 12:40:00,
2015-08-04 05:45:00,59.8,40.6,29.94,South,188,1.0,4.0,49,0.00,,FEW180,0.00,VWS V15.00,2015-08-04 12:45:00,
2015-08-04 05:50:00,59.5,40.9,29.94,SSW,204,1.0,4.0,50,0.00,,FEW180,0.00,VWS V15.00,2015-08-04 12:50:00,
2015-08-04 05:55:00,59.2,41.1,29.94,SSW,210,1.0,2.0,51,0.00,,FEW180,0.00,VWS V15.00,2015-08-04 12:55:00,
2015-08-04 06:00:00,59.1,41.0,29.94,SSW,201,1.0,2.0,51,0.00,,FEW180,0.00,VWS V15.00,2015-08-04 13:00:00,
2015-08-04 06:05:00,59.0,40.9,29.94,SSW,204,0.0,2.0,51,0.00,,FEW180,0.00,VWS V15.00,2015-08-04 13:05:00,
2015-08-04 06:10:00,58.8,40.7,29.94,SSW,206,1.0,2.0,51,0.00,,FEW180,0.00,VWS V15.00,2015-08-04 13:10:00,
2015-08-04 06:15:00,59.0,40.4,29.94,SSW,207,0.0,2.0,50,0.00,,FEW180,0.00,VWS V15.00,2015-08-04 13:15:00,
2015-08-04 06:20:00,59.0,40.4,29.94,SSW,198,1.0,2.0,50,0.00,,FEW180,0.00,VWS V15.00,2015-08-04 13:20:00,
2015-08-04 06:25:00,59.0,40.4,29.94,SSW,199,0.0,2.0,50,0.00,,FEW180,0.00,VWS V15.00,2015-08-04 13:25:00,
2015-08-04 06:30:00,59.3,41.2,29.95,SSW,199,0.0,2.0,51,0.00,,FEW180,0.00,VWS V15.00,2015-08-04 13:30:00,
2015-08-04 06:35:00,59.7,40.5,29.95,SSW,205,1.0,2.0,49,0.00,,FEW180,0.00,VWS V15.00,2015-08-04 13:35:00,
2015-08-04 06:40:00,59.6,41.0,29.95,SSW,208,0.0,2.0,50,0.00,,FEW180,0.00,VWS V15.00,2015-08-04 13:40:00,
2015-08-04 06:45:00,59.4,40.8,29.95,SSW,209,0.0,2.0,50,0.00,,FEW180,0.00,VWS V15.00,2015-08-04 13:45:00,
2015-08-04 06:50:00,59.6,41.0,29.95,SSW,206,0.0,2.0,50,0.00,,FEW180,0.00,VWS V15.00,2015-08-04 13:50:00,
2015-08-04 06:55:00,60.0,41.3,29.95,SSW,202,2.0,3.0,50,0.00,,FEW180,0.00,VWS V15.00,2015-08-04 13:55:00,
2015-08-04 07:00:00,60.2,41.5,29.95,SW,215,0.0,3.0,50,0.00,,FEW180,0.00,VWS V15.00,2015-08-04 14:00:00,
2015-08-04 07:05:00,60.5,41.8,29.96,SW,214,1.0,3.0,50,0.00,,FEW180,0.00,VWS V15.00,2015-08-04 14:05:00,
2015-08-04 07:10:00,60.9,42.2,29.96,SSW,200,0.0,3.0,50,0.00,,FEW180,0.00,VWS V15.00,2015-08-04 14:10:00,
2015-08-04 07:15:00,61.3,41.5,29.96,SSW,211,1.0,3.0,48,0.00,,FEW180,0.00,VWS V15.00,2015-08-04 14:15:00,
2015-08-04 07:20:00,61.9,42.0,29.95,SSW,203,0.0,3.0,48,0.00,,FEW180,0.00,VWS V15.00,2015-08-04 14:20:00,
2015-08-04 07:25:00,62.8,41.7,29.95,SSW,207,0.0,3.0,46,0.00,,FEW180,0.00,VWS V15.00,2015-08-04 14:25:00,
2015-08-04 07:30:00,63.0,40.8,29.95,SSW,213,1.0,3.0,44,0.00,,FEW180,0.00,VWS V15.00,2015-08-04 14:30:00,
2015-08-04 07:35:00,63.2,40.3,29.95,SW,221,0.0,3.0,43,0.00,,FEW180,0.00,VWS V15.00,2015-08-04 14:35:00,
2015-08-04 07:40:00,63.5,41.2,29.95,SW,218,2.0,3.0,44,0.00,,FEW180,0.00,VWS V15.00,2015-08-04 14:40:00,
2015-08-04 07:45:00,63.7,40.8,29.95,SSW,196,1.0,3.0,43,0.00,,FEW180,0.00,VWS V15.00,2015-08-04 14:45:00,
2015-08-04 07:50:00,63.9,41.0,29.95,SSW,209,1.0,3.0,43,0.00,,FEW180,0.00,VWS V15.00,2015-08-04 14:50:00,
2015-08-04 07:55:00,64.5,41.5,29.95,SW,218,2.0,2.0,43,0.00,,FEW180,0.00,VWS V15.00,2015-08-04 14:55:00,
2015-08-04 08:00:00,64.9,41.9,29.95,SW,225,1.0,2.0,43,0.00,,FEW180,0.00,VWS V15.00,2015-08-04 15:00:00,
2015-08-04 08:05:00,65.5,41.8,29.95,SSW,205,0.0,3.0,42,0.00,,FEW180,0.00,VWS V15.00,2015-08-04 15:05:00,
2015-08-04 08:10:00,66.1,41.1,29.94,SW,215,0.0,3.0,40,0.00,,FEW180,0.00,VWS V15.00,2015-08-04 15:10:00,
2015-08-04 08:15:00,66.5,42.7,29.95,SW,215,0.0,3.0,42,0.00,,FEW180,0.00,VWS V15.00,2015-08-04 15:15:00,
2015-08-04 08:20:00,67.1,42.0,29.95,SSW,202,2.0,3.0,40,0.00,,FEW180,0.00,VWS V15.00,2015-08-04 15:20:00,
2015-08-04 08:25:00,67.5,43.0,29.95,SSW,207,0.0,3.0,41,0.00,,FEW180,0.00,VWS V15.00,2015-08-04 15:25:00,
2015-08-04 08:30:00,68.6,42.7,29.95,SSE,160,0.0,3.0,39,0.00,,FEW180,0.00,VWS V15.00,2015-08-04 15:30:00,